CDT,Max TemperatureF,Mean TemperatureF,Min TemperatureF,Max Dew PointF,MeanDew PointF,Min DewpointF,Max Humidity, Mean Humidity, Min Humidity, Max Sea Level PressureIn, Mean Sea Level PressureIn, Min Sea Level PressureIn, Max VisibilityMiles, Mean VisibilityMiles, Min VisibilityMiles, Max Wind SpeedMPH, Mean Wind SpeedMPH, Max Gust SpeedMPH,PrecipitationIn, CloudCover, Events, WindDirDegrees
2012-10-1,88,77,65,64,59,53,87,62,36,29.92,29.86,29.81,10,10,10,33,6,43,T,1,Thunderstorm,344
2012-10-2,89,77,64,65,57,45,93,58,22,29.98,29.93,29.90,10,10,10,21,8,26,0.00,1,,312
2012-10-3,91,77,62,72,62,54,78,56,34,30.01,29.97,29.93,10,10,10,22,10,32,0.00,1,,160
2012-10-4,92,84,75,75,73,71,94,75,56,30.08,30.03,29.99,10,10,9,26,15,35,0.00,2,,154
2012-10-5,92,81,69,72,69,67,93,69,44,30.09,30.03,29.96,10,10,10,16,9,22,0.00,1,,152
2012-10-6,90,79,67,69,66,64,90,69,47,30.01,29.96,29.90,10,10,10,20,7,25,0.00,2,,95
2012-10-7,74,69,63,64,56,51,78,66,53,30.15,30.08,30.00,10,10,10,26,16,31,0.00,8,,22
2012-10-8,75,67,58,58,50,46,67,57,46,30.22,30.14,30.08,10,10,10,22,10,26,0.00,7,,31
2012-10-9,89,78,66,71,65,59,82,68,53,30.07,30.01,29.93,10,10,9,22,11,29,0.00,5,,86
2012-10-10,94,84,73,77,73,71,94,72,49,30.06,30.01,29.95,10,9,6,23,10,28,T,2,Fog,123
2012-10-11,90,84,78,76,74,72,91,74,56,30.12,30.06,30.02,10,9,2,25,14,33,0.16,4,Rain,138
2012-10-12,91,82,73,75,73,70,93,75,56,30.13,30.08,30.04,10,10,10,23,14,28,0.00,4,,127
2012-10-13,91,85,79,75,73,71,85,71,56,30.08,30.00,29.91,10,10,10,32,18,39,0.00,3,,152
2012-10-14,90,83,75,73,70,68,85,68,50,30.04,29.98,29.92,10,10,10,22,10,26,0.00,3,,158
2012-10-15,90,82,74,72,65,59,87,63,38,30.07,30.00,29.94,10,10,10,16,8,22,0.00,2,,68
2012-10-16,90,83,76,72,69,66,74,61,47,29.95,29.85,29.75,10,10,10,16,7,20,T,5,Rain,126
2012-10-17,101,88,75,73,70,60,82,55,27,29.77,29.71,29.61,10,10,10,23,11,30,0.00,2,,165
2012-10-18,90,81,72,76,69,59,100,77,54,29.91,29.81,29.70,10,9,4,24,12,30,0.00,5,Fog,54
2012-10-19,87,78,69,60,56,53,66,50,34,30.01,29.95,29.91,10,10,10,20,12,23,0.00,3,,66
2012-10-20,92,81,69,74,69,58,87,70,52,29.93,29.87,29.81,10,10,10,26,14,32,T,2,Rain,150
2012-10-21,94,84,74,74,72,68,88,66,44,29.93,29.88,29.86,10,10,5,28,14,33,0.00,2,,156
2012-10-22,91,82,73,76,73,70,93,73,52,29.96,29.92,29.89,10,10,10,26,13,31,0.03,2,Rain,148
2012-10-23,91,82,72,71,69,66,82,66,50,29.96,29.93,29.90,10,10,10,21,12,26,0.00,2,,137
2012-10-24,92,79,66,70,66,62,90,64,38,29.97,29.92,29.86,10,10,10,21,10,25,0.00,2,,139
2012-10-25,93,81,68,72,70,66,90,70,49,29.89,29.84,29.80,10,10,10,23,11,33,0.00,2,,151
2012-10-26,77,67,57,72,55,46,93,71,49,30.19,30.04,29.89,10,10,10,30,17,33,T,6,Rain,18
2012-10-27,70,63,55,46,39,34,67,48,29,30.27,30.18,30.10,10,10,10,23,15,28,0.00,7,,7
2012-10-28,72,61,50,38,35,30,51,37,22,30.26,30.20,30.15,10,10,10,18,10,22,0.00,6,,55
2012-10-29,76,62,48,42,39,34,66,47,27,30.27,30.20,30.14,10,10,10,13,8,18,0.00,1,,56
2012-10-30,84,69,53,58,52,42,77,58,39,30.14,30.05,29.97,10,10,10,18,7,24,0.00,1,,133
2012-10-31,88,76,63,69,65,59,93,72,50,30.04,29.99,29.94,10,10,10,20,9,24,0.00,2,Thunderstorm,130